When you browse on this site, cookies collect data to enhance your experience and personalize the content and advertising you see.
Visit our Privacy Policy to learn more. By continuing to use the site, you agree to this use of cookies and data.
  • en France
  • Liste des pays
  • À 7 jours
  • Température de l'eau
  • Carte météo
  • Widgets météo
  • user-avatar
    Se connecter

    Météo par heure à Grodno

    Ce jour, 16 Septembre, Lundi

    Heure Température Précipitation Vent Pression Humidité
    00:00 +15°C° 0 mm 6 m/s 746 mmHg 63%
    01:00 +14°C° 0 mm 6 m/s 746 mmHg 68%
    02:00 +14°C° 0 mm 5 m/s 746 mmHg 72%
    03:00 +13°C° 0 mm 5 m/s 746 mmHg 74%
    04:00 +11°C° 0 mm 6 m/s 746 mmHg 76%
    05:00 +10°C° 0 mm 6 m/s 746 mmHg 78%
    06:00 +11°C° 0 mm 6 m/s 746 mmHg 74%
    07:00 +11°C° 0 mm 7 m/s 746 mmHg 70%
    08:00 +11°C° 0 mm 7 m/s 746 mmHg 67%
    09:00 +12°C° 0 mm 8 m/s 746 mmHg 64%
    10:00 +13°C° 0 mm 8 m/s 746 mmHg 62%
    11:00 +15°C° 0 mm 8 m/s 746 mmHg 60%
    12:00 +13°C° 0 mm 8 m/s 746 mmHg 59%
    13:00 +13°C° 0 mm 8 m/s 747 mmHg 59%
    14:00 +13°C° 0 mm 8 m/s 747 mmHg 58%
    15:00 +13°C° 0 mm 8 m/s 747 mmHg 59%
    16:00 +14°C° 0 mm 7 m/s 746 mmHg 61%
    17:00 +13°C° 0 mm 6 m/s 746 mmHg 62%
    18:00 +13°C° 0 mm 6 m/s 746 mmHg 64%
    19:00 +11°C° 0 mm 6 m/s 746 mmHg 66%
    20:00 +12°C° 0 mm 5 m/s 746 mmHg 68%
    21:00 +10°C° 0 mm 5 m/s 746 mmHg 67%
    22:00 +10°C° 0 mm 6 m/s 746 mmHg 67%
    23:00 +10°C° 0 mm 6 m/s 745 mmHg 66%

    Demain, 17 Septembre, Mardi

    Heure Température Précipitation Vent Pression Humidité
    00:00 +9°C° 0 mm 6 m/s 745 mmHg 68%
    01:00 +8°C° 0 mm 5 m/s 745 mmHg 71%
    02:00 +8°C° 0 mm 5 m/s 745 mmHg 73%
    03:00 +7°C° 0 mm 5 m/s 745 mmHg 76%
    04:00 +7°C° 0 mm 5 m/s 745 mmHg 78%
    05:00 +7°C° 0 mm 6 m/s 744 mmHg 80%
    06:00 +8°C° 0 mm 6 m/s 744 mmHg 80%
    07:00 +8°C° 0 mm 6 m/s 744 mmHg 79%
    08:00 +8°C° 0 mm 6 m/s 744 mmHg 78%
    09:00 +10°C° 0.1 mm 7 m/s 744 mmHg 73%
    10:00 +11°C° 0.1 mm 7 m/s 744 mmHg 68%
    11:00 +12°C° 0.1 mm 7 m/s 743 mmHg 63%
    12:00 +12°C° 0.4 mm 7 m/s 743 mmHg 64%
    13:00 +12°C° 0.4 mm 7 m/s 742 mmHg 64%
    14:00 +12°C° 0.4 mm 7 m/s 742 mmHg 65%
    15:00 +12°C° 0.6 mm 7 m/s 741 mmHg 69%
    16:00 +11°C° 0.6 mm 7 m/s 741 mmHg 72%
    17:00 +10°C° 0.6 mm 6 m/s 741 mmHg 76%
    18:00 +9°C° 0.9 mm 6 m/s 741 mmHg 80%
    19:00 +8°C° 0.9 mm 5 m/s 741 mmHg 84%
    20:00 +7°C° 0.9 mm 5 m/s 740 mmHg 88%
    21:00 +6°C° 0.1 mm 5 m/s 740 mmHg 88%
    22:00 +6°C° 0.1 mm 5 m/s 740 mmHg 87%
    23:00 +5°C° 0.1 mm 5 m/s 740 mmHg 87%

    Après-demain, 18 Septembre, Mercredi

    Heure Température Précipitation Vent Pression Humidité
    00:00 +5°C° 0 mm 5 m/s 740 mmHg 88%
    01:00 +5°C° 0 mm 5 m/s 740 mmHg 88%
    02:00 +3°C° 0 mm 6 m/s 740 mmHg 89%
    03:00 +4°C° 0 mm 6 m/s 740 mmHg 89%
    04:00 +4°C° 0 mm 6 m/s 740 mmHg 89%
    05:00 +4°C° 0 mm 6 m/s 741 mmHg 89%
    06:00 +5°C° 0 mm 6 m/s 741 mmHg 88%
    07:00 +5°C° 0 mm 6 m/s 742 mmHg 86%
    08:00 +7°C° 0 mm 6 m/s 742 mmHg 84%
    09:00 +8°C° 0.1 mm 6 m/s 743 mmHg 78%
    10:00 +9°C° 0.1 mm 6 m/s 744 mmHg 72%
    11:00 +11°C° 0.1 mm 6 m/s 744 mmHg 66%
    12:00 +10°C° 0.7 mm 6 m/s 745 mmHg 69%
    13:00 +10°C° 0.7 mm 5 m/s 745 mmHg 73%
    14:00 +10°C° 0.7 mm 5 m/s 745 mmHg 77%
    15:00 +10°C° 0.1 mm 6 m/s 746 mmHg 77%
    16:00 +10°C° 0.1 mm 6 m/s 746 mmHg 77%
    17:00 +10°C° 0.1 mm 6 m/s 747 mmHg 77%
    18:00 +9°C° 0 mm 6 m/s 747 mmHg 81%
    19:00 +8°C° 0 mm 5 m/s 747 mmHg 84%
    20:00 +7°C° 0 mm 4 m/s 748 mmHg 88%
    21:00 +6°C° 0 mm 4 m/s 748 mmHg 89%
    22:00 +6°C° 0 mm 4 m/s 749 mmHg 91%
    23:00 +6°C° 0 mm 5 m/s 749 mmHg 92%

    19 Septembre, Jeudi

    Heure Température Précipitation Vent Pression Humidité
    00:00 +5°C° 0 mm 4 m/s 749 mmHg 93%
    01:00 +5°C° 0 mm 3 m/s 750 mmHg 95%
    02:00 +5°C° 0 mm 3 m/s 750 mmHg 96%
    03:00 +5°C° 0 mm 3 m/s 750 mmHg 96%
    04:00 +6°C° 0 mm 2 m/s 750 mmHg 96%
    05:00 +6°C° 0 mm 2 m/s 750 mmHg 96%
    06:00 +5°C° 0 mm 3 m/s 751 mmHg 92%
    07:00 +7°C° 0 mm 3 m/s 751 mmHg 89%
    08:00 +7°C° 0 mm 3 m/s 751 mmHg 86%
    09:00 +9°C° 0.1 mm 3 m/s 752 mmHg 80%
    10:00 +10°C° 0.1 mm 3 m/s 752 mmHg 73%
    11:00 +12°C° 0.1 mm 3 m/s 752 mmHg 67%
    12:00 +12°C° 0.2 mm 3 m/s 752 mmHg 64%
    13:00 +13°C° 0.2 mm 4 m/s 752 mmHg 61%
    14:00 +13°C° 0.2 mm 5 m/s 752 mmHg 58%
    15:00 +12°C° 0.3 mm 4 m/s 752 mmHg 62%
    16:00 +12°C° 0.3 mm 4 m/s 752 mmHg 67%
    17:00 +11°C° 0.3 mm 4 m/s 753 mmHg 72%
    18:00 +10°C° 0.2 mm 4 m/s 753 mmHg 77%
    19:00 +8°C° 0.2 mm 4 m/s 753 mmHg 83%
    20:00 +6°C° 0.2 mm 4 m/s 754 mmHg 88%
    21:00 +6°C° 0.2 mm 4 m/s 754 mmHg 88%
    22:00 +6°C° 0.2 mm 4 m/s 755 mmHg 88%
    23:00 +6°C° 0.2 mm 4 m/s 755 mmHg 88%

    20 Septembre, Vendredi

    Heure Température Précipitation Vent Pression Humidité
    00:00 +5°C° 0.1 mm 4 m/s 755 mmHg 90%
    01:00 +4°C° 0.1 mm 3 m/s 755 mmHg 92%
    02:00 +3°C° 0.1 mm 3 m/s 755 mmHg 94%
    03:00 +3°C° 0 mm 3 m/s 755 mmHg 93%
    04:00 +2°C° 0 mm 3 m/s 756 mmHg 93%
    05:00 +2°C° 0 mm 3 m/s 756 mmHg 93%
    06:00 +3°C° 0 mm 4 m/s 756 mmHg 91%
    07:00 +4°C° 0 mm 4 m/s 756 mmHg 89%
    08:00 +5°C° 0 mm 5 m/s 756 mmHg 87%
    09:00 +6°C° 0 mm 5 m/s 757 mmHg 84%
    10:00 +6°C° 0 mm 5 m/s 757 mmHg 82%
    11:00 +7°C° 0 mm 5 m/s 758 mmHg 79%
    12:00 +8°C° 0 mm 5 m/s 758 mmHg 71%
    13:00 +10°C° 0 mm 4 m/s 758 mmHg 64%
    14:00 +11°C° 0 mm 4 m/s 758 mmHg 56%
    15:00 +11°C° 0 mm 4 m/s 758 mmHg 57%
    16:00 +11°C° 0 mm 3 m/s 758 mmHg 57%
    17:00 +11°C° 0 mm 3 m/s 758 mmHg 58%
    18:00 +9°C° 0 mm 3 m/s 758 mmHg 64%
    19:00 +8°C° 0 mm 3 m/s 759 mmHg 70%
    20:00 +6°C° 0 mm 2 m/s 759 mmHg 76%
    21:00 +6°C° 0 mm 2 m/s 759 mmHg 80%
    22:00 +5°C° 0 mm 2 m/s 759 mmHg 83%
    23:00 +5°C° 0 mm 2 m/s 760 mmHg 87%

    21 Septembre, Samedi

    Heure Température Précipitation Vent Pression Humidité
    00:00 +5°C° 0 mm 2 m/s 760 mmHg 86%
    01:00 +4°C° 0 mm 2 m/s 760 mmHg 84%
    02:00 +4°C° 0 mm 2 m/s 760 mmHg 83%
    03:00 +4°C° 0 mm 2 m/s 760 mmHg 82%
    04:00 +5°C° 0 mm 2 m/s 760 mmHg 81%
    05:00 +5°C° 0 mm 2 m/s 760 mmHg 80%
    06:00 +5°C° 0 mm 3 m/s 760 mmHg 77%
    07:00 +7°C° 0 mm 3 m/s 760 mmHg 75%
    08:00 +8°C° 0 mm 3 m/s 760 mmHg 72%
    09:00 +8°C° 0 mm 4 m/s 760 mmHg 67%
    10:00 +10°C° 0 mm 4 m/s 760 mmHg 62%
    11:00 +12°C° 0 mm 4 m/s 760 mmHg 57%
    12:00 +13°C° 0 mm 4 m/s 760 mmHg 57%
    13:00 +13°C° 0 mm 4 m/s 759 mmHg 57%
    14:00 +14°C° 0 mm 4 m/s 759 mmHg 57%
    15:00 +14°C° 0 mm 4 m/s 759 mmHg 60%
    16:00 +14°C° 0 mm 4 m/s 759 mmHg 63%
    17:00 +14°C° 0 mm 3 m/s 758 mmHg 67%
    18:00 +13°C° 0 mm 3 m/s 759 mmHg 73%
    19:00 +12°C° 0 mm 3 m/s 759 mmHg 78%
    20:00 +11°C° 0 mm 3 m/s 759 mmHg 84%
    21:00 +10°C° 0 mm 3 m/s 759 mmHg 87%
    22:00 +10°C° 0 mm 3 m/s 759 mmHg 89%
    23:00 +9°C° 0 mm 3 m/s 759 mmHg 91%
    Voir plus